Back to catalog

COSMOS 1275 DEB

AlivePO
NORAD 42180·DEBRIS·🇷🇺 Russia

Launched Jun 4, 1981 from Plesetsk Cosmodrome

Loading…

Next Passes (next 24 hours)

TLE

AgingSource: Space-Track

Epoch: Sep 7, 2026, 06:03 UTC

1 42180U 81053SU  26250.25258424  .00062049  00000-0  38488-2 0  9993
2 42180  82.8475 238.1468 0012289 126.3584 291.3643 15.09383167641084

Track COSMOS 1275 DEB in real time with AllMySat

Download on the App Store